Adrian, MI

12:36 AM EDT on March 29, 2017 (GMT -0400)
Lenawee County

Weather History for KADG - September, 2013

Change the Weather History Date:

Sunday, September 1, 2013

  Actual Average Record
Temperature  
Mean Temperature 74 °F -  
Max Temperature 82 °F 79 °F 98 °F (1953)
Min Temperature 68 °F 55 °F 39 °F (1986)
Cooling Degree Days 10    
Growing Degree Days 24 (Base 50)    
Moisture  
Dew Point 68 °F    
Average Humidity 83    
Maximum Humidity 94    
Minimum Humidity 65    
Precipitation  
Precipitation 0.00 in - - ()
Sea Level Pressure  
Sea Level Pressure 29.80 in    
Wind  
Wind Speed 5 mph (SSE)    
Max Wind Speed 9 mph    
Max Gust Speed -    
Visibility 8 miles    
Events Rain    
Averages and records for this station are not official NWS values.
T = Trace of Precipitation, MM = Missing Value Source: NWS Daily Summary

Daily Weather History Graph

Daily Weather History Graph

Search for Another Location

Airport or City:

Trip Planner

Search our weather history database for the weather conditions in past years. The results will help you decide how hot, cold, wet, or windy it might be!

Date:

Astronomy

Sep. 01, 2013 Rise Set
Actual Time 7:02 AM EDT 8:09 PM EDT
Civil Twilight 6:33 AM EDT 8:37 PM EDT
Nautical Twilight 5:59 AM EDT 9:11 PM EDT
Astronomical Twilight 5:23 AM EDT 9:47 PM EDT
Moon 3:21 AM EDT (9/1) 5:48 PM EDT (9/1)
Length of Visible Light 14h 04m
Length of Day
13h 07m
Waning Crescent, 14% of the Moon is Illuminated
Sep 1
Waning Crescent
Sep 5
New
Sep 12
First Quarter
Sep 19
Full
Sep 26
Last Quarter

Hourly Weather History & Observations

Time (EDT) Temp. Heat Index Dew Point Humidity Pressure Visibility Wind Dir Wind Speed Gust Speed Precip Events Conditions
12:22 AM 71.6 °F - 69.8 °F 94% 29.85 in 7.0 mi SSE 3.5 mph - N/A   Overcast
12:30 AM 71.6 °F - 69.8 °F 94% 29.85 in 8.0 mi ESE 4.6 mph - N/A   Overcast
12:41 AM 71.6 °F - 69.8 °F 94% 29.86 in 9.0 mi East 4.6 mph - N/A   Overcast
12:53 AM 72.0 °F - 68.0 °F 87% 29.85 in 10.0 mi East 5.8 mph - N/A   Overcast
1:53 AM 71.1 °F - 68.0 °F 90% 29.84 in 8.0 mi East 6.9 mph - 0.00 in Rain Light Rain
2:53 AM 69.1 °F - 66.9 °F 93% 29.83 in 9.0 mi East 8.1 mph - 0.00 in   Overcast
3:53 AM 69.1 °F - 66.9 °F 93% 29.81 in 7.0 mi East 6.9 mph - N/A   Overcast
4:53 AM 69.1 °F - 66.9 °F 93% 29.80 in 7.0 mi East 6.9 mph - N/A   Overcast
5:53 AM 69.1 °F - 66.9 °F 93% 29.81 in 6.0 mi Calm Calm - N/A   Overcast
6:42 AM 69.8 °F - 66.2 °F 88% 29.82 in 8.0 mi ESE 4.6 mph - N/A   Overcast
6:53 AM 68.0 °F - 66.0 °F 93% 29.81 in 7.0 mi ESE 3.5 mph - N/A   Overcast
7:53 AM 69.1 °F - 66.0 °F 90% 29.81 in 7.0 mi ESE 4.6 mph - N/A   Overcast
8:15 AM 69.8 °F - 66.2 °F 88% 29.82 in 6.0 mi East 3.5 mph - N/A   Overcast
8:53 AM 70.0 °F - 68.0 °F 93% 29.81 in 6.0 mi East 3.5 mph - N/A   Overcast
9:53 AM 72.0 °F - 69.1 °F 91% 29.81 in 6.0 mi ESE 4.6 mph - N/A   Overcast
10:03 AM 71.6 °F - 69.8 °F 94% 29.81 in 6.0 mi ESE 3.5 mph - N/A   Overcast
10:34 AM 73.4 °F - 69.8 °F 88% 29.81 in 6.0 mi Calm Calm - N/A   Overcast
10:45 AM 73.4 °F - 68.0 °F 83% 29.81 in 9.0 mi SSW 4.6 mph - N/A   Overcast
10:53 AM 73.9 °F - 68.0 °F 82% 29.80 in 9.0 mi SW 4.6 mph - N/A   Overcast
11:04 AM 75.2 °F - 69.8 °F 83% 29.81 in 10.0 mi South 5.8 mph - N/A   Overcast
11:53 AM 75.9 °F - 69.1 °F 79% 29.81 in 10.0 mi Variable 6.9 mph - N/A   Overcast
12:53 PM 77.0 °F - 68.0 °F 74% 29.81 in 10.0 mi South 3.5 mph - N/A   Overcast
1:15 PM 77.0 °F - 68.0 °F 74% 29.81 in 10.0 mi SSW 3.5 mph - N/A   Overcast
1:53 PM 80.1 °F 82.9 °F 69.1 °F 69% 29.78 in 10.0 mi South 5.8 mph - N/A   Mostly Cloudy
2:24 PM 80.6 °F 83.2 °F 68.0 °F 65% 29.79 in 10.0 mi South 4.6 mph - N/A   Mostly Cloudy
2:38 PM 80.6 °F 83.2 °F 68.0 °F 65% 29.79 in 10.0 mi West 6.9 mph - N/A   Mostly Cloudy
2:53 PM 81.0 °F 83.8 °F 68.0 °F 65% 29.78 in 10.0 mi SSW 9.2 mph - N/A   Scattered Clouds
3:53 PM 80.1 °F 82.7 °F 68.0 °F 67% 29.77 in 10.0 mi WSW 8.1 mph - N/A   Overcast
4:53 PM 81.0 °F 83.8 °F 68.0 °F 65% 29.76 in 10.0 mi SW 6.9 mph - N/A   Partly Cloudy
5:53 PM 81.0 °F 83.8 °F 68.0 °F 65% 29.75 in 10.0 mi SSW 8.1 mph - N/A   Partly Cloudy
6:53 PM 79.0 °F - 69.1 °F 72% 29.75 in 10.0 mi SW 6.9 mph - N/A   Partly Cloudy
7:53 PM 77.0 °F - 69.1 °F 76% 29.75 in 10.0 mi SSW 6.9 mph - N/A   Clear
8:53 PM 75.0 °F - 69.1 °F 82% 29.77 in 9.0 mi SW 6.9 mph - N/A   Clear
9:53 PM 73.0 °F - 69.1 °F 87% 29.77 in 8.0 mi WSW 4.6 mph - N/A   Clear
10:53 PM 71.1 °F - 68.0 °F 90% 29.78 in 7.0 mi West 3.5 mph - N/A   Clear
11:53 PM 72.0 °F - 69.1 °F 91% 29.79 in 8.0 mi West 5.8 mph - N/A   Mostly Cloudy